Time,TemperatureF,DewpointF,PressureIn,WindDirection,WindDirectionDegrees,WindSpeedMPH,WindSpeedGustMPH,Humidity,HourlyPrecipIn,Conditions,Clouds,dailyrainin,SoftwareType,DateUTC
2013-02-13 00:00:00,48.2,44.5,29.80,ESE,111,3.1,8.1,87,0.00,,---,0.00,VWS V14.01,2013-02-13 08:00:00,
2013-02-13 00:05:00,48.2,44.5,29.83,WSW,238,4.9,4.9,87,0.00,,---,0.00,VWS V14.01,2013-02-13 08:05:00,
2013-02-13 00:10:00,48.2,44.5,29.83,WSW,243,5.4,5.4,87,0.00,,---,0.00,VWS V14.01,2013-02-13 08:10:00,
2013-02-13 00:15:00,48.2,44.5,29.83,WSW,244,6.3,6.3,87,0.00,,---,0.00,VWS V14.01,2013-02-13 08:15:00,
2013-02-13 00:20:00,48.2,44.5,29.83,WSW,244,3.6,3.6,87,0.00,,---,0.00,VWS V14.01,2013-02-13 08:20:00,
2013-02-13 00:25:00,48.2,44.5,29.83,WSW,245,5.8,5.8,87,0.00,,---,0.00,VWS V14.01,2013-02-13 08:25:00,
2013-02-13 00:30:00,48.2,44.5,29.83,WNW,299,4.0,7.6,87,0.00,,---,0.00,VWS V14.01,2013-02-13 08:30:00,
2013-02-13 00:35:00,48.2,44.5,29.83,SW,226,4.5,4.5,87,0.00,,---,0.00,VWS V14.01,2013-02-13 08:35:00,
2013-02-13 00:40:00,48.2,44.5,29.83,SSE,157,5.8,5.8,87,0.00,,---,0.00,VWS V14.01,2013-02-13 08:40:00,
2013-02-13 00:45:00,48.2,44.5,29.83,SE,145,2.7,2.7,87,0.00,,---,0.00,VWS V14.01,2013-02-13 08:45:00,
2013-02-13 00:50:00,48.2,44.5,29.83,West,275,4.9,8.3,87,0.00,,---,0.00,VWS V14.01,2013-02-13 08:50:00,
2013-02-13 00:55:00,48.2,44.5,29.83,WSW,256,4.9,5.8,87,0.00,,---,0.00,VWS V14.01,2013-02-13 08:55:00,
2013-02-13 01:00:00,48.2,44.5,29.83,SSE,165,3.6,3.6,87,0.00,,---,0.00,VWS V14.01,2013-02-13 09:00:00,
2013-02-13 01:05:00,48.2,44.5,29.83,West,276,3.6,5.8,87,0.00,,---,0.00,VWS V14.01,2013-02-13 09:05:00,
2013-02-13 01:10:00,48.2,44.5,29.83,SSW,208,5.4,8.1,87,0.00,,---,0.00,VWS V14.01,2013-02-13 09:10:00,
2013-02-13 01:15:00,48.2,44.5,29.83,West,272,4.9,5.8,87,0.00,,---,0.00,VWS V14.01,2013-02-13 09:15:00,
2013-02-13 01:20:00,48.2,44.5,29.83,SSE,154,4.0,4.0,87,0.00,,---,0.00,VWS V14.01,2013-02-13 09:20:00,
2013-02-13 01:25:00,48.2,44.5,29.83,South,184,7.6,7.6,87,0.00,,---,0.00,VWS V14.01,2013-02-13 09:25:00,
2013-02-13 01:30:00,48.2,44.5,29.83,SE,124,5.8,5.8,87,0.00,,---,0.00,VWS V14.01,2013-02-13 09:30:00,
2013-02-13 01:35:00,48.2,44.5,29.83,SW,224,5.4,8.7,87,0.00,,---,0.00,VWS V14.01,2013-02-13 09:35:00,
2013-02-13 01:40:00,48.2,44.5,29.83,WSW,253,5.4,5.4,87,0.00,,---,0.00,VWS V14.01,2013-02-13 09:40:00,
2013-02-13 01:45:00,48.2,44.5,29.83,SSE,147,5.4,7.6,87,0.00,,---,0.00,VWS V14.01,2013-02-13 09:45:00,
2013-02-13 01:50:00,48.2,44.5,29.83,WSW,257,7.6,7.6,87,0.00,,---,0.00,VWS V14.01,2013-02-13 09:50:00,
2013-02-13 01:55:00,48.2,44.5,29.83,SSW,212,5.4,5.4,87,0.00,,---,0.00,VWS V14.01,2013-02-13 09:55:00,
2013-02-13 02:00:00,48.2,44.5,29.83,WSW,257,3.1,3.1,87,0.00,,---,0.00,VWS V14.01,2013-02-13 10:00:00,
2013-02-13 02:05:00,48.2,44.5,29.83,SSW,209,3.6,3.6,87,0.00,,---,0.00,VWS V14.01,2013-02-13 10:05:00,
2013-02-13 02:10:00,48.2,44.5,29.83,SW,224,3.1,3.1,87,0.00,,---,0.00,VWS V14.01,2013-02-13 10:10:00,
2013-02-13 02:15:00,48.2,44.5,29.83,SW,236,6.7,6.7,87,0.00,,---,0.00,VWS V14.01,2013-02-13 10:15:00,
2013-02-13 02:20:00,48.2,44.5,29.83,West,261,6.7,6.7,87,0.00,,---,0.00,VWS V14.01,2013-02-13 10:20:00,
2013-02-13 02:25:00,48.2,44.5,29.83,WSW,244,4.0,4.0,87,0.00,,---,0.00,VWS V14.01,2013-02-13 10:25:00,
2013-02-13 02:30:00,48.2,44.5,29.83,WNW,293,3.6,3.6,87,0.00,,---,0.00,VWS V14.01,2013-02-13 10:30:00,
2013-02-13 02:35:00,48.2,44.5,29.83,WSW,257,8.3,8.3,87,0.00,,---,0.00,VWS V14.01,2013-02-13 10:35:00,
2013-02-13 02:40:00,48.2,44.5,29.83,SW,231,3.6,3.6,87,0.00,,---,0.00,VWS V14.01,2013-02-13 10:40:00,
2013-02-13 02:45:00,48.2,44.5,29.83,SW,215,2.7,2.7,87,0.00,,---,0.00,VWS V14.01,2013-02-13 10:45:00,
2013-02-13 02:50:00,48.2,44.5,29.85,SW,232,2.2,4.0,87,0.00,,---,0.00,VWS V14.01,2013-02-13 10:50:00,
2013-02-13 02:55:00,48.2,44.5,29.85,SW,219,3.1,5.8,87,0.00,,---,0.00,VWS V14.01,2013-02-13 10:55:00,
2013-02-13 03:00:00,48.2,44.5,29.85,SW,236,0.0,2.2,87,0.00,,---,0.00,VWS V14.01,2013-02-13 11:00:00,
2013-02-13 03:05:00,48.2,44.5,29.85,WSW,246,5.4,6.3,87,0.00,,---,0.00,VWS V14.01,2013-02-13 11:05:00,
2013-02-13 03:10:00,48.2,44.5,29.85,WSW,258,4.9,4.9,87,0.00,,---,0.00,VWS V14.01,2013-02-13 11:10:00,
2013-02-13 03:15:00,48.2,44.5,29.85,West,262,2.7,3.6,87,0.00,,---,0.00,VWS V14.01,2013-02-13 11:15:00,
2013-02-13 10:21:00,45.1,40.6,29.94,NW,325,2.7,2.7,84,0.00,,---,0.00,VWS V14.01,2013-02-13 18:21:00,
2013-02-13 10:26:00,45.1,40.6,29.94,NW,325,2.7,2.7,84,0.00,,---,0.00,VWS V14.01,2013-02-13 18:26:00,
2013-02-13 10:31:00,45.1,40.6,29.94,SSE,167,0.0,2.2,84,0.00,,---,0.00,VWS V14.01,2013-02-13 18:31:00,
2013-02-13 10:36:00,45.3,40.8,29.94,WSW,239,2.2,2.2,84,0.00,,---,0.00,VWS V14.01,2013-02-13 18:36:00,
2013-02-13 10:41:00,45.3,40.8,29.94,WSW,238,2.7,2.7,84,0.00,,---,0.00,VWS V14.01,2013-02-13 18:41:00,
2013-02-13 10:46:00,45.3,40.5,29.94,WSW,238,2.7,2.7,83,0.00,,---,0.00,VWS V14.01,2013-02-13 18:46:00,
2013-02-13 10:51:00,45.5,40.7,29.94,SSE,162,0.0,0.0,83,0.00,,---,0.00,VWS V14.01,2013-02-13 18:51:00,
2013-02-13 10:56:00,45.5,40.7,29.94,WSW,245,3.1,3.1,83,0.00,,---,0.00,VWS V14.01,2013-02-13 18:56:00,
2013-02-13 11:01:00,45.5,40.7,29.94,WSW,240,2.2,3.1,83,0.00,,---,0.00,VWS V14.01,2013-02-13 19:01:00,
2013-02-13 11:06:00,45.5,40.7,29.94,WSW,240,0.0,0.0,83,0.00,,---,0.00,VWS V14.01,2013-02-13 19:06:00,
2013-02-13 11:11:00,45.5,40.7,29.94,West,261,2.7,2.7,83,0.00,,---,0.00,VWS V14.01,2013-02-13 19:11:00,
2013-02-13 11:16:00,45.5,40.7,29.94,SSW,209,3.1,3.1,83,0.00,,---,0.00,VWS V14.01,2013-02-13 19:16:00,
2013-02-13 11:21:00,45.5,40.3,29.94,SE,135,3.1,3.1,82,0.00,,---,0.00,VWS V14.01,2013-02-13 19:21:00,
2013-02-13 11:26:00,45.5,40.3,29.94,WSW,240,5.4,5.4,82,0.00,,---,0.00,VWS V14.01,2013-02-13 19:26:00,
2013-02-13 11:30:00,45.5,40.3,29.94,West,262,0.0,0.0,82,0.00,,---,0.00,VWS V14.01,2013-02-13 19:30:00,
2013-02-13 11:35:00,45.5,40.3,29.94,WNW,293,2.7,2.7,82,0.00,,---,0.00,VWS V14.01,2013-02-13 19:35:00,
2013-02-13 11:40:00,45.5,40.3,29.94,SW,222,2.7,2.7,82,0.00,,---,0.00,VWS V14.01,2013-02-13 19:40:00,
2013-02-13 11:45:00,45.7,40.5,29.94,SW,226,0.0,0.0,82,0.00,,---,0.00,VWS V14.01,2013-02-13 19:45:00,
2013-02-13 11:50:00,45.7,40.5,29.94,SW,231,3.6,3.6,82,0.00,,---,0.00,VWS V14.01,2013-02-13 19:50:00,
2013-02-13 11:55:00,45.7,40.5,29.94,SW,226,0.0,3.6,82,0.00,,---,0.00,VWS V14.01,2013-02-13 19:55:00,
2013-02-13 12:00:00,45.7,40.5,29.94,SSE,149,2.2,2.2,82,0.00,,---,0.00,VWS V14.01,2013-02-13 20:00:00,
2013-02-13 12:05:00,45.7,40.5,29.94,SW,218,2.7,2.7,82,0.00,,---,0.00,VWS V14.01,2013-02-13 20:05:00,
2013-02-13 12:10:00,45.7,40.5,29.94,SSE,160,3.1,3.1,82,0.00,,---,0.00,VWS V14.01,2013-02-13 20:10:00,
2013-02-13 12:15:00,45.7,40.5,29.94,SSW,196,3.1,3.6,82,0.00,,---,0.00,VWS V14.01,2013-02-13 20:15:00,
2013-02-13 12:20:00,45.7,40.5,29.94,SSW,196,0.0,0.0,82,0.00,,---,0.00,VWS V14.01,2013-02-13 20:20:00,
2013-02-13 12:25:00,45.9,40.7,29.94,SW,230,3.1,3.1,82,0.00,,---,0.00,VWS V14.01,2013-02-13 20:25:00,
2013-02-13 12:30:00,45.9,40.7,29.94,SSE,149,0.0,0.0,82,0.00,,---,0.00,VWS V14.01,2013-02-13 20:30:00,
2013-02-13 12:35:00,45.9,40.7,29.91,WSW,243,4.0,4.0,82,0.00,,---,0.00,VWS V14.01,2013-02-13 20:35:00,
2013-02-13 12:40:00,46.2,41.0,29.91,WSW,250,4.0,4.0,82,0.00,,---,0.00,VWS V14.01,2013-02-13 20:40:00,
2013-02-13 12:45:00,46.2,41.0,29.91,SE,146,0.0,0.0,82,0.00,,---,0.00,VWS V14.01,2013-02-13 20:45:00,
2013-02-13 12:50:00,46.4,40.9,29.91,SE,140,0.0,0.0,81,0.00,,---,0.00,VWS V14.01,2013-02-13 20:50:00,
2013-02-13 12:55:00,46.4,40.9,29.91,WNW,285,2.2,2.7,81,0.00,,---,0.00,VWS V14.01,2013-02-13 20:55:00,
2013-02-13 13:00:00,46.6,40.8,29.91,SW,229,4.9,4.9,80,0.00,,---,0.00,VWS V14.01,2013-02-13 21:00:00,
2013-02-13 13:05:00,46.6,40.8,29.91,WNW,284,3.1,3.1,80,0.00,,---,0.00,VWS V14.01,2013-02-13 21:05:00,
2013-02-13 13:10:00,46.8,40.9,29.91,SW,220,6.3,6.3,80,0.00,,---,0.00,VWS V14.01,2013-02-13 21:10:00,
2013-02-13 13:15:00,46.8,40.9,29.91,WNW,285,3.1,3.1,80,0.00,,---,0.00,VWS V14.01,2013-02-13 21:15:00,
2013-02-13 13:20:00,46.6,40.4,29.91,WSW,244,2.7,2.7,79,0.00,,---,0.00,VWS V14.01,2013-02-13 21:20:00,
2013-02-13 13:25:00,46.8,40.6,29.91,SW,230,2.7,2.7,79,0.00,,---,0.00,VWS V14.01,2013-02-13 21:25:00,
2013-02-13 13:30:00,46.8,40.6,29.91,WSW,252,0.0,0.0,79,0.00,,---,0.00,VWS V14.01,2013-02-13 21:30:00,
2013-02-13 13:35:00,46.8,40.9,29.91,West,274,0.0,2.2,80,0.00,,---,0.00,VWS V14.01,2013-02-13 21:35:00,
2013-02-13 13:40:00,46.8,40.9,29.91,NW,314,0.0,0.0,80,0.00,,---,0.00,VWS V14.01,2013-02-13 21:40:00,
2013-02-13 13:45:00,46.8,40.6,29.91,WSW,257,0.0,0.0,79,0.00,,---,0.00,VWS V14.01,2013-02-13 21:45:00,
2013-02-13 13:50:00,46.8,40.6,29.91,SW,214,2.7,2.7,79,0.00,,---,0.00,VWS V14.01,2013-02-13 21:50:00,
2013-02-13 13:55:00,46.9,40.8,29.91,West,278,0.0,2.7,79,0.00,,---,0.00,VWS V14.01,2013-02-13 21:55:00,
2013-02-13 14:00:00,46.9,40.8,29.91,NW,309,0.0,0.0,79,0.00,,---,0.00,VWS V14.01,2013-02-13 22:00:00,
2013-02-13 14:05:00,46.9,40.8,29.94,SSE,158,0.0,0.0,79,0.00,,---,0.00,VWS V14.01,2013-02-13 22:05:00,
2013-02-13 14:10:00,46.9,40.8,29.94,West,272,3.1,3.1,79,0.00,,---,0.00,VWS V14.01,2013-02-13 22:10:00,
2013-02-13 14:15:00,46.9,40.8,29.91,WSW,245,0.0,0.0,79,0.00,,---,0.00,VWS V14.01,2013-02-13 22:15:00,
2013-02-13 14:20:00,47.1,41.0,29.91,SW,225,0.0,0.0,79,0.00,,---,0.00,VWS V14.01,2013-02-13 22:20:00,
2013-02-13 14:25:00,46.9,40.8,29.91,SSW,194,0.0,0.0,79,0.00,,---,0.00,VWS V14.01,2013-02-13 22:25:00,
2013-02-13 14:30:00,46.9,40.8,29.91,SSW,194,2.2,2.2,79,0.00,,---,0.00,VWS V14.01,2013-02-13 22:30:00,
2013-02-13 14:35:00,46.9,40.8,29.91,SSW,194,0.0,0.0,79,0.00,,---,0.00,VWS V14.01,2013-02-13 22:35:00,
2013-02-13 14:40:00,46.9,40.8,29.91,SSW,194,0.0,0.0,79,0.00,,---,0.00,VWS V14.01,2013-02-13 22:40:00,
2013-02-13 14:45:00,46.9,40.8,29.91,SSW,194,0.0,0.0,79,0.00,,---,0.00,VWS V14.01,2013-02-13 22:45:00,
2013-02-13 14:50:00,47.1,40.6,29.91,SSW,194,0.0,0.0,78,0.00,,---,0.00,VWS V14.01,2013-02-13 22:50:00,
2013-02-13 14:55:00,47.1,40.6,29.91,SSW,194,0.0,0.0,78,0.00,,---,0.00,VWS V14.01,2013-02-13 22:55:00,
2013-02-13 15:00:00,47.1,40.6,29.91,SSW,194,0.0,0.0,78,0.00,,---,0.00,VWS V14.01,2013-02-13 23:00:00,
2013-02-13 15:05:00,47.1,40.6,29.91,SSW,194,0.0,0.0,78,0.00,,---,0.00,VWS V14.01,2013-02-13 23:05:00,
2013-02-13 15:10:00,47.1,40.6,29.91,SE,137,2.2,2.2,78,0.00,,---,0.00,VWS V14.01,2013-02-13 23:10:00,
2013-02-13 15:15:00,47.1,41.0,29.91,ESE,106,2.7,2.7,79,0.00,,---,0.00,VWS V14.01,2013-02-13 23:15:00,
2013-02-13 15:20:00,47.1,41.0,29.94,ESE,106,0.0,0.0,79,0.00,,---,0.00,VWS V14.01,2013-02-13 23:20:00,
2013-02-13 15:25:00,46.9,41.4,29.94,ESE,106,0.0,0.0,81,0.00,,---,0.00,VWS V14.01,2013-02-13 23:25:00,
2013-02-13 15:30:00,46.9,41.4,29.94,ESE,106,0.0,0.0,81,0.00,,---,0.00,VWS V14.01,2013-02-13 23:30:00,
2013-02-13 15:35:00,46.9,41.7,29.91,ESE,106,0.0,0.0,82,0.00,,---,0.00,VWS V14.01,2013-02-13 23:35:00,
2013-02-13 15:40:00,46.9,41.7,29.91,ESE,106,0.0,0.0,82,0.00,,---,0.00,VWS V14.01,2013-02-13 23:40:00,
2013-02-13 15:45:00,46.8,41.6,29.91,ESE,106,0.0,0.0,82,0.00,,---,0.00,VWS V14.01,2013-02-13 23:45:00,
2013-02-13 15:50:00,46.8,41.6,29.94,ESE,106,0.0,0.0,82,0.00,,---,0.00,VWS V14.01,2013-02-13 23:50:00,
2013-02-13 15:55:00,46.6,41.7,29.94,ESE,106,0.0,0.0,83,0.00,,---,0.00,VWS V14.01,2013-02-13 23:55:00,
2013-02-13 16:00:00,46.4,41.5,29.94,ESE,106,0.0,0.0,83,0.00,,---,0.00,VWS V14.01,2013-02-14 00:00:00,
2013-02-13 16:05:00,46.4,41.5,29.94,ESE,106,0.0,0.0,83,0.00,,---,0.00,VWS V14.01,2013-02-14 00:05:00,
2013-02-13 16:10:00,46.4,41.5,29.94,ESE,106,0.0,0.0,83,0.00,,---,0.00,VWS V14.01,2013-02-14 00:10:00,
2013-02-13 16:15:00,46.4,41.5,29.94,ESE,106,0.0,0.0,83,0.00,,---,0.00,VWS V14.01,2013-02-14 00:15:00,
2013-02-13 16:20:00,46.4,41.8,29.91,ESE,106,0.0,0.0,84,0.00,,---,0.00,VWS V14.01,2013-02-14 00:20:00,
2013-02-13 16:25:00,46.4,41.8,29.91,ESE,106,0.0,0.0,84,0.00,,---,0.00,VWS V14.01,2013-02-14 00:25:00,
2013-02-13 16:30:00,46.4,41.8,29.91,ESE,106,0.0,0.0,84,0.00,,---,0.00,VWS V14.01,2013-02-14 00:30:00,
2013-02-13 16:35:00,46.4,41.8,29.91,ESE,106,0.0,0.0,84,0.00,,---,0.00,VWS V14.01,2013-02-14 00:35:00,
2013-02-13 16:40:00,46.2,42.0,29.91,ESE,106,0.0,0.0,85,0.00,,---,0.00,VWS V14.01,2013-02-14 00:40:00,
2013-02-13 16:45:00,46.2,42.0,29.91,ESE,106,0.0,0.0,85,0.00,,---,0.00,VWS V14.01,2013-02-14 00:45:00,
2013-02-13 16:50:00,46.2,42.0,29.94,ESE,106,0.0,0.0,85,0.00,,---,0.00,VWS V14.01,2013-02-14 00:50:00,
2013-02-13 16:55:00,46.0,41.8,29.94,ESE,106,0.0,0.0,85,0.00,,---,0.00,VWS V14.01,2013-02-14 00:55:00,
2013-02-13 17:00:00,46.0,41.8,29.94,ESE,106,0.0,0.0,85,0.00,,---,0.00,VWS V14.01,2013-02-14 01:00:00,
2013-02-13 17:05:00,46.0,42.1,29.94,ESE,106,0.0,0.0,86,0.00,,---,0.00,VWS V14.01,2013-02-14 01:05:00,
2013-02-13 17:10:00,46.0,42.1,29.94,ESE,106,0.0,0.0,86,0.00,,---,0.00,VWS V14.01,2013-02-14 01:10:00,
2013-02-13 17:15:00,45.9,41.9,29.94,ESE,106,0.0,0.0,86,0.00,,---,0.00,VWS V14.01,2013-02-14 01:15:00,
2013-02-13 17:20:00,45.9,41.9,29.94,ESE,106,0.0,0.0,86,0.00,,---,0.00,VWS V14.01,2013-02-14 01:20:00,
2013-02-13 17:25:00,45.9,42.2,29.94,ESE,106,0.0,0.0,87,0.00,,---,0.00,VWS V14.01,2013-02-14 01:25:00,
2013-02-13 17:30:00,45.9,42.2,29.94,ESE,106,0.0,0.0,87,0.00,,---,0.00,VWS V14.01,2013-02-14 01:30:00,
2013-02-13 17:35:00,45.7,42.0,29.94,ESE,106,0.0,0.0,87,0.00,,---,0.00,VWS V14.01,2013-02-14 01:35:00,
2013-02-13 17:40:00,45.7,42.0,29.94,ESE,106,0.0,0.0,87,0.00,,---,0.00,VWS V14.01,2013-02-14 01:40:00,
2013-02-13 17:45:00,45.5,42.2,29.94,ESE,106,0.0,0.0,88,0.00,,---,0.00,VWS V14.01,2013-02-14 01:45:00,
2013-02-13 17:50:00,45.1,42.1,29.94,ESE,106,0.0,0.0,89,0.00,,---,0.00,VWS V14.01,2013-02-14 01:50:00,
2013-02-13 17:55:00,45.1,42.1,29.94,ESE,106,0.0,0.0,89,0.00,,---,0.00,VWS V14.01,2013-02-14 01:55:00,
2013-02-13 18:00:00,45.0,42.2,29.94,ESE,106,0.0,0.0,90,0.00,,---,0.00,VWS V14.01,2013-02-14 02:00:00,
2013-02-13 18:05:00,45.0,42.2,29.94,ESE,106,0.0,0.0,90,0.00,,---,0.00,VWS V14.01,2013-02-14 02:05:00,
2013-02-13 18:10:00,44.8,42.3,29.94,ESE,106,0.0,0.0,91,0.00,,---,0.00,VWS V14.01,2013-02-14 02:10:00,
2013-02-13 18:15:00,44.8,42.3,29.94,ESE,106,0.0,0.0,91,0.00,,---,0.00,VWS V14.01,2013-02-14 02:15:00,
2013-02-13 18:20:00,44.8,42.3,29.91,ESE,106,0.0,0.0,91,0.00,,---,0.00,VWS V14.01,2013-02-14 02:20:00,
2013-02-13 18:25:00,44.8,42.3,29.91,ESE,106,0.0,0.0,91,0.00,,---,0.00,VWS V14.01,2013-02-14 02:25:00,
2013-02-13 18:30:00,44.6,42.4,29.91,ESE,106,0.0,0.0,92,0.00,,---,0.00,VWS V14.01,2013-02-14 02:30:00,
2013-02-13 18:35:00,44.4,42.2,29.94,ESE,106,0.0,0.0,92,0.00,,---,0.00,VWS V14.01,2013-02-14 02:35:00,
2013-02-13 18:40:00,44.4,42.2,29.94,ESE,106,0.0,0.0,92,0.00,,---,0.00,VWS V14.01,2013-02-14 02:40:00,
2013-02-13 18:45:00,44.6,42.4,29.94,ESE,106,0.0,0.0,92,0.00,,---,0.00,VWS V14.01,2013-02-14 02:45:00,
2013-02-13 18:50:00,44.6,42.4,29.94,ESE,106,0.0,0.0,92,0.00,,---,0.00,VWS V14.01,2013-02-14 02:50:00,
2013-02-13 18:55:00,44.4,42.5,29.94,ESE,106,0.0,0.0,93,0.00,,---,0.00,VWS V14.01,2013-02-14 02:55:00,
2013-02-13 19:00:00,44.4,42.5,29.94,ESE,106,0.0,0.0,93,0.00,,---,0.00,VWS V14.01,2013-02-14 03:00:00,
2013-02-13 19:05:00,44.4,42.5,29.94,ESE,106,0.0,0.0,93,0.00,,---,0.00,VWS V14.01,2013-02-14 03:05:00,
2013-02-13 19:10:00,44.4,42.5,29.94,ESE,106,0.0,0.0,93,0.00,,---,0.00,VWS V14.01,2013-02-14 03:10:00,
2013-02-13 19:15:00,44.4,42.8,29.94,ESE,106,0.0,0.0,94,0.00,,---,0.00,VWS V14.01,2013-02-14 03:15:00,
2013-02-13 19:20:00,44.4,42.8,29.94,ESE,106,0.0,0.0,94,0.00,,---,0.00,VWS V14.01,2013-02-14 03:20:00,
2013-02-13 19:25:00,44.2,42.6,29.94,ESE,106,0.0,0.0,94,0.00,,---,0.00,VWS V14.01,2013-02-14 03:25:00,
2013-02-13 19:30:00,44.2,42.6,29.94,ESE,106,0.0,0.0,94,0.00,,---,0.00,VWS V14.01,2013-02-14 03:30:00,
2013-02-13 19:35:00,44.2,42.6,29.94,ESE,106,0.0,0.0,94,0.00,,---,0.00,VWS V14.01,2013-02-14 03:35:00,
2013-02-13 19:40:00,44.2,42.6,29.94,ESE,106,0.0,0.0,94,0.00,,---,0.00,VWS V14.01,2013-02-14 03:40:00,
2013-02-13 19:45:00,44.2,42.6,29.94,ESE,106,0.0,0.0,94,0.00,,---,0.00,VWS V14.01,2013-02-14 03:45:00,
2013-02-13 19:50:00,44.2,42.6,29.94,ESE,106,0.0,0.0,94,0.00,,---,0.00,VWS V14.01,2013-02-14 03:50:00,
2013-02-13 19:55:00,44.2,42.6,29.94,ESE,106,0.0,0.0,94,0.00,,---,0.00,VWS V14.01,2013-02-14 03:55:00,
2013-02-13 20:00:00,44.1,42.5,29.94,ESE,106,0.0,0.0,94,0.00,,---,0.00,VWS V14.01,2013-02-14 04:00:00,
2013-02-13 20:05:00,44.1,42.5,29.94,ESE,106,0.0,0.0,94,0.00,,---,0.00,VWS V14.01,2013-02-14 04:05:00,
2013-02-13 20:10:00,43.9,42.3,29.94,ESE,106,0.0,0.0,94,0.00,,---,0.00,VWS V14.01,2013-02-14 04:10:00,
2013-02-13 20:15:00,43.9,42.3,29.94,ESE,106,0.0,0.0,94,0.00,,---,0.00,VWS V14.01,2013-02-14 04:15:00,
2013-02-13 20:20:00,43.9,42.3,29.97,ESE,106,0.0,0.0,94,0.00,,---,0.00,VWS V14.01,2013-02-14 04:20:00,
2013-02-13 20:25:00,43.9,42.3,29.97,ESE,106,0.0,0.0,94,0.00,,---,0.00,VWS V14.01,2013-02-14 04:25:00,
2013-02-13 20:30:00,43.9,42.3,29.97,ESE,106,0.0,0.0,94,0.00,,---,0.00,VWS V14.01,2013-02-14 04:30:00,
2013-02-13 20:35:00,43.9,42.3,29.94,ESE,106,0.0,0.0,94,0.00,,---,0.00,VWS V14.01,2013-02-14 04:35:00,
2013-02-13 20:40:00,43.9,42.3,29.94,ESE,106,0.0,0.0,94,0.00,,---,0.00,VWS V14.01,2013-02-14 04:40:00,
2013-02-13 20:45:00,43.9,42.3,29.94,ESE,106,0.0,0.0,94,0.00,,---,0.00,VWS V14.01,2013-02-14 04:45:00,
2013-02-13 20:50:00,43.9,42.3,29.97,ESE,106,0.0,0.0,94,0.00,,---,0.00,VWS V14.01,2013-02-14 04:50:00,
2013-02-13 20:55:00,43.9,42.3,29.97,ESE,106,0.0,0.0,94,0.00,,---,0.00,VWS V14.01,2013-02-14 04:55:00,
2013-02-13 21:00:00,43.9,42.3,29.97,ESE,106,0.0,0.0,94,0.00,,---,0.00,VWS V14.01,2013-02-14 05:00:00,
2013-02-13 21:05:00,43.9,42.5,29.97,ESE,106,0.0,0.0,95,0.00,,---,0.00,VWS V14.01,2013-02-14 05:05:00,
2013-02-13 21:10:00,43.9,42.3,29.97,ESE,106,0.0,0.0,94,0.00,,---,0.00,VWS V14.01,2013-02-14 05:10:00,
2013-02-13 21:15:00,43.9,42.3,29.97,ESE,106,0.0,0.0,94,0.00,,---,0.00,VWS V14.01,2013-02-14 05:15:00,
2013-02-13 21:20:00,43.9,42.3,29.97,ESE,106,0.0,0.0,94,0.00,,---,0.00,VWS V14.01,2013-02-14 05:20:00,
2013-02-13 21:25:00,43.9,42.3,29.97,ESE,106,0.0,0.0,94,0.00,,---,0.00,VWS V14.01,2013-02-14 05:25:00,
2013-02-13 21:30:00,43.7,42.4,29.97,ESE,106,0.0,0.0,95,0.00,,---,0.00,VWS V14.01,2013-02-14 05:30:00,
2013-02-13 21:35:00,43.7,42.4,29.94,ESE,106,0.0,0.0,95,0.00,,---,0.00,VWS V14.01,2013-02-14 05:35:00,
2013-02-13 21:40:00,43.7,42.4,29.94,ESE,106,0.0,0.0,95,0.00,,---,0.00,VWS V14.01,2013-02-14 05:40:00,
2013-02-13 21:45:00,43.7,42.4,29.94,ESE,106,0.0,0.0,95,0.00,,---,0.00,VWS V14.01,2013-02-14 05:45:00,
2013-02-13 21:50:00,43.7,42.4,29.97,ESE,106,0.0,0.0,95,0.00,,---,0.00,VWS V14.01,2013-02-14 05:50:00,
2013-02-13 21:55:00,43.7,42.4,29.97,ESE,106,0.0,0.0,95,0.00,,---,0.00,VWS V14.01,2013-02-14 05:55:00,
2013-02-13 22:00:00,43.7,42.4,29.97,ESE,106,0.0,0.0,95,0.00,,---,0.00,VWS V14.01,2013-02-14 06:00:00,
2013-02-13 22:05:00,43.7,42.4,29.97,ESE,106,0.0,0.0,95,0.00,,---,0.00,VWS V14.01,2013-02-14 06:05:00,
2013-02-13 22:10:00,43.7,42.4,29.97,ESE,106,0.0,0.0,95,0.00,,---,0.00,VWS V14.01,2013-02-14 06:10:00,
2013-02-13 22:15:00,43.7,42.4,29.97,ESE,106,0.0,0.0,95,0.00,,---,0.00,VWS V14.01,2013-02-14 06:15:00,
2013-02-13 22:20:00,43.7,42.4,29.97,ESE,106,0.0,0.0,95,0.00,,---,0.00,VWS V14.01,2013-02-14 06:20:00,
2013-02-13 22:25:00,43.7,42.4,29.97,ESE,106,0.0,0.0,95,0.00,,---,0.00,VWS V14.01,2013-02-14 06:25:00,
2013-02-13 22:30:00,43.7,42.4,29.97,ESE,106,0.0,0.0,95,0.00,,---,0.00,VWS V14.01,2013-02-14 06:30:00,
2013-02-13 22:35:00,43.7,42.4,29.97,ESE,106,0.0,0.0,95,0.00,,---,0.00,VWS V14.01,2013-02-14 06:35:00,
2013-02-13 22:40:00,43.7,42.4,29.97,ESE,106,0.0,0.0,95,0.00,,---,0.00,VWS V14.01,2013-02-14 06:40:00,
2013-02-13 22:45:00,43.7,42.4,29.97,ESE,106,0.0,0.0,95,0.00,,---,0.00,VWS V14.01,2013-02-14 06:45:00,
2013-02-13 22:50:00,43.7,42.4,29.97,ESE,106,0.0,0.0,95,0.00,,---,0.00,VWS V14.01,2013-02-14 06:50:00,
2013-02-13 22:55:00,43.7,42.4,29.97,ESE,106,0.0,0.0,95,0.00,,---,0.00,VWS V14.01,2013-02-14 06:55:00,
2013-02-13 23:00:00,43.7,42.4,29.97,ESE,106,0.0,0.0,95,0.00,,---,0.00,VWS V14.01,2013-02-14 07:00:00,
2013-02-13 23:05:00,43.7,42.4,29.97,ESE,106,0.0,0.0,95,0.00,,---,0.00,VWS V14.01,2013-02-14 07:05:00,
2013-02-13 23:10:00,43.7,42.4,29.97,ESE,106,0.0,0.0,95,0.00,,---,0.00,VWS V14.01,2013-02-14 07:10:00,
2013-02-13 23:15:00,43.7,42.4,29.97,ESE,106,0.0,0.0,95,0.00,,---,0.00,VWS V14.01,2013-02-14 07:15:00,
2013-02-13 23:20:00,43.7,42.6,29.97,ESE,106,0.0,0.0,96,0.00,,---,0.00,VWS V14.01,2013-02-14 07:20:00,
2013-02-13 23:25:00,43.7,42.6,29.97,ESE,106,0.0,0.0,96,0.00,,---,0.00,VWS V14.01,2013-02-14 07:25:00,
2013-02-13 23:30:00,43.7,42.6,29.97,ESE,106,0.0,0.0,96,0.00,,---,0.00,VWS V14.01,2013-02-14 07:30:00,
2013-02-13 23:35:00,43.7,42.6,29.97,ESE,106,0.0,0.0,96,0.00,,---,0.00,VWS V14.01,2013-02-14 07:35:00,
2013-02-13 23:40:00,43.7,42.6,29.97,ESE,106,0.0,0.0,96,0.00,,---,0.00,VWS V14.01,2013-02-14 07:40:00,
2013-02-13 23:45:00,43.7,42.6,29.97,ESE,106,0.0,0.0,96,0.00,,---,0.00,VWS V14.01,2013-02-14 07:45:00,
2013-02-13 23:50:00,43.7,42.6,29.97,ESE,106,0.0,0.0,96,0.00,,---,0.00,VWS V14.01,2013-02-14 07:50:00,
2013-02-13 23:55:00,43.7,42.6,29.97,ESE,106,0.0,0.0,96,0.00,,---,0.00,VWS V14.01,2013-02-14 07:55:00,